Location: Zagreb
(45.8000°N, 16.0000°E)
Time: 14:47:40
(UTC+02:00)

Vanguard 1 - Pass Details

Date: 08 August 2022
Orbit: 649 x 3832 km, 34.2° (Epoch: 25 September)

Event Time Altitude Azimuth Distance (km) Brightness Sun altitude
Rises 05:00:24 0° 218° (SW) 5,970 - -8.0°
Exits shadow 05:01:58 - 215° (SW) 5,688 13.4 -7.7°
Reaches altitude 10° 05:04:05 10° 211° (SSW) 5,339 13.3 -7.4°
Maximum altitude 05:19:53 42° 147° (SSE) 4,394 13.4 -5.1°
Drops below altitude 10° 05:40:35 10° 87° (E) 6,905 15.8 -1.9°
Sets 05:46:12 0° 82° (E) 7,804 16.5 -1.0°
